Zurück zum Katalog

COSMOS 1791

AktivMilitärPO
NORAD 17066·PAYLOAD·🇷🇺 Russia

Gestartet Nov 13, 1986 von Plesetsk Cosmodrome

Loading…

Nächste Überflüge (nächste 24 Stunden)

TLE

AktuellSource: Space-Track

Epoche: Sep 14, 2026, 06:46 UTC

1 17066U 86086A   26257.28213404  .00000043  00000-0  28460-4 0  9995
2 17066  82.9501 195.3694 0040781 352.5200 159.7164 13.76061689   427

Verfolge COSMOS 1791 in Echtzeit mit AllMySat

Download on the App Store